Home   Weather   Sterling Heights   Past weeks

Flag for USA Past Weather in Sterling Heights, Michigan, USA — Yesterday and Last 2 Weeks

Now
29 °F

Passing clouds.


Feels Like: 22 °F
Forecast: 30 / 41 °F
Wind: 6 mph from South

Location: Selfridge Air National Guard Base

Current Time: Dec 5, 2016 at 9:59:44 pm

Latest Report: Dec 5, 2016 at 8:58 pm


Visibility: 12 mi

Pressure: 30.08 "Hg

Humidity: 90%

Dew Point: 26 °F

Location of Sterling HeightsLocation

Past Weather in Sterling Heights — Graph

°F

Sterling Heights Temperature Yesterday

Maximum temperature yesterday: 39 °F (at 11:58 am)
Minimum temperature yesterday: 32 °F (at 11:58 pm)
Average temperature yesterday: 37 °F

High & Low Weather Summary for the Past Weeks

 TemperatureHumidityPressure
High56 °F (Nov 29, 1:58 pm)100% (Nov 24, 1:58 am)30.37 "Hg (Nov 24, 1:58 am)
Low21 °F (Nov 22, 7:58 am)39% (Nov 21, 2:58 pm)29.41 "Hg (Nov 29, 1:58 am)
Average39 °F81%30.03 "Hg
* Reported Nov 20 8:58 pm — Dec 5 8:58 pm, Sterling Heights, Weather by CustomWeather, © 2016

Note: Actual official high and low records may vary slightly from our data, if they occured in-between our weather recording intervals... More about our weather records

Advertising

Sterling Heights Weather History for the Previous 24 Hours

Scroll right to see more
 ConditionsComfort  
Time TempWeatherWind HumidityBarometerVisibility
8:58 pm
Mon, Dec 5
29 °FPassing clouds.6 mph90%30.08 "Hg12 mi
7:58 pm33 °FPassing clouds.3 mph82%30.07 "Hg12 mi
6:58 pm35 °FPassing clouds.6 mph81%30.06 "Hg12 mi
5:58 pm36 °FPassing clouds.8 mph80%30.07 "Hg12 mi
4:58 pm39 °FPassing clouds.10 mph72%30.06 "Hg10 mi
3:58 pm41 °FPartly sunny.12 mph66%30.05 "Hg10 mi
2:58 pm42 °FPartly sunny.9 mph65%30.03 "Hg10 mi
1:58 pm42 °FPartly sunny.6 mph66%30.03 "Hg10 mi
12:58 pm41 °FPartly sunny.10 mph69%30.05 "Hg10 mi
11:58 am41 °FOvercast.9 mph70%30.03 "Hg10 mi
10:58 am39 °FMostly cloudy.8 mph74%30.03 "Hg10 mi
9:58 am39 °FMore clouds than sun.6 mph79%30.02 "Hg10 mi
8:58 am38 °FMore clouds than sun.12 mph80%30.01 "Hg10 mi
7:58 am37 °FMostly cloudy.10 mph86%29.98 "Hg10 mi
7:03 am37 °FOvercast.9 mph81%29.93 "Hg10 mi
5:58 am36 °FOvercast.9 mph92%29.93 "Hg10 mi
4:58 am35 °FOvercast.7 mph92%29.91 "Hg10 mi
3:58 am34 °FPassing clouds.8 mph93%29.89 "Hg10 mi
2:58 am35 °FMostly cloudy.9 mph97%29.86 "Hg10 mi
1:58 am35 °FLow clouds.5 mph99%29.83 "Hg10 mi
12:58 am34 °FLow clouds.3 mph98%29.82 "Hg10 mi
12:03 am32 °FLight freezing rain. Passing clouds.5 mph100%29.79 "Hg10 mi
11:58 pm
Sun, Dec 4
32 °FLight freezing rain. Passing clouds.6 mph100%29.82 "Hg10 mi
10:58 pm35 °FLight rain. Fog.7 mph99%29.83 "Hg2 mi
9:58 pm37 °FLight rain. Fog.12 mph93%29.85 "Hg4 mi
Weather by CustomWeather, © 2016

See weather overviewHow to use our weather pages